Time,TemperatureF,DewpointF,PressureIn,WindDirection,WindDirectionDegrees,WindSpeedMPH,WindSpeedGustMPH,Humidity,HourlyPrecipIn,Conditions,Clouds,dailyrainin,SoftwareType,DateUTC
2013-02-05 00:01:00,41.0,25.6,29.94,ENE,61,1.1,1.1,54,0.00,CLR,,0.00,WeatherDisplay:10.37,2013-02-05 08:01:00,
2013-02-05 00:06:00,40.6,24.8,29.94,ENE,60,0.0,0.0,53,0.00,CLR,,0.00,WeatherDisplay:10.37,2013-02-05 08:06:00,
2013-02-05 00:11:00,40.0,24.7,29.94,ENE,61,0.0,0.0,54,0.00,CLR,,0.00,WeatherDisplay:10.37,2013-02-05 08:11:00,
2013-02-05 00:16:00,39.9,25.0,29.94,ENE,61,1.0,1.0,55,0.00,CLR,,0.00,WeatherDisplay:10.37,2013-02-05 08:16:00,
2013-02-05 00:21:00,40.3,25.8,29.94,ENE,61,1.1,1.1,56,0.00,CLR,,0.00,WeatherDisplay:10.37,2013-02-05 08:21:00,
2013-02-05 00:26:00,40.4,25.5,29.94,ENE,64,3.5,3.5,55,0.00,CLR,,0.00,WeatherDisplay:10.37,2013-02-05 08:26:00,
2013-02-05 00:31:00,39.8,24.9,29.94,ENE,64,3.5,3.5,55,0.00,CLR,,0.00,WeatherDisplay:10.37,2013-02-05 08:31:00,
2013-02-05 00:36:00,39.1,24.3,29.95,ENE,65,0.0,0.0,55,0.00,CLR,,0.00,WeatherDisplay:10.37,2013-02-05 08:36:00,
2013-02-05 00:41:00,38.2,23.9,29.95,ENE,64,2.3,2.3,56,0.00,CLR,,0.00,WeatherDisplay:10.37,2013-02-05 08:41:00,
2013-02-05 00:46:00,37.2,23.4,29.95,ENE,64,2.3,2.3,57,0.00,CLR,,0.00,WeatherDisplay:10.37,2013-02-05 08:46:00,
2013-02-05 00:51:00,37.0,24.4,29.95,ENE,65,2.3,2.3,60,0.00,CLR,,0.00,WeatherDisplay:10.37,2013-02-05 08:51:00,
2013-02-05 00:56:00,37.4,25.2,29.95,ENE,65,0.0,0.0,61,0.00,CLR,,0.00,WeatherDisplay:10.37,2013-02-05 08:56:00,
2013-02-05 01:01:00,37.9,25.6,29.94,ENE,65,0.0,0.0,61,0.00,CLR,,0.00,WeatherDisplay:10.37,2013-02-05 09:01:00,
2013-02-05 01:06:00,38.3,25.2,29.94,ENE,64,0.0,0.0,59,0.00,CLR,,0.00,WeatherDisplay:10.37,2013-02-05 09:06:00,
2013-02-05 01:11:00,38.8,25.3,29.93,ENE,65,2.3,2.3,58,0.00,CLR,,0.00,WeatherDisplay:10.37,2013-02-05 09:11:00,
2013-02-05 01:16:00,38.9,25.4,29.93,ENE,65,0.0,0.0,58,0.00,CLR,,0.00,WeatherDisplay:10.37,2013-02-05 09:16:00,
2013-02-05 01:21:00,39.2,25.6,29.93,ENE,64,0.0,0.0,58,0.00,CLR,,0.00,WeatherDisplay:10.37,2013-02-05 09:21:00,
2013-02-05 01:26:00,39.4,25.4,29.93,ENE,65,0.0,0.0,57,0.00,CLR,,0.00,WeatherDisplay:10.37,2013-02-05 09:26:00,
2013-02-05 01:31:00,39.4,25.4,29.93,ENE,65,0.0,0.0,57,0.00,CLR,,0.00,WeatherDisplay:10.37,2013-02-05 09:31:00,
2013-02-05 01:36:00,39.2,25.2,29.93,ENE,65,0.0,0.0,57,0.00,CLR,,0.00,WeatherDisplay:10.37,2013-02-05 09:36:00,
2013-02-05 01:41:00,39.1,25.6,29.93,ENE,65,0.0,0.0,58,0.00,CLR,,0.00,WeatherDisplay:10.37,2013-02-05 09:41:00,
2013-02-05 01:46:00,39.1,25.6,29.93,ENE,65,0.0,0.0,58,0.00,CLR,,0.00,WeatherDisplay:10.37,2013-02-05 09:46:00,
2013-02-05 01:51:00,39.0,25.5,29.92,ENE,65,0.0,0.0,58,0.00,CLR,,0.00,WeatherDisplay:10.37,2013-02-05 09:51:00,
2013-02-05 01:56:00,39.1,25.6,29.92,ENE,65,0.0,0.0,58,0.00,CLR,,0.00,WeatherDisplay:10.37,2013-02-05 09:56:00,
2013-02-05 02:01:00,39.3,25.7,29.92,ENE,65,0.0,0.0,58,0.00,CLR,,0.00,WeatherDisplay:10.37,2013-02-05 10:01:00,
2013-02-05 02:06:00,39.4,25.8,29.93,ENE,65,0.0,0.0,58,0.00,CLR,,0.00,WeatherDisplay:10.37,2013-02-05 10:06:00,
2013-02-05 02:11:00,39.1,25.6,29.93,ENE,65,3.5,3.5,58,0.00,CLR,,0.00,WeatherDisplay:10.37,2013-02-05 10:11:00,
2013-02-05 02:16:00,39.3,25.7,29.92,ENE,65,3.5,3.5,58,0.00,CLR,,0.00,WeatherDisplay:10.37,2013-02-05 10:16:00,
2013-02-05 02:21:00,39.6,25.6,29.92,ENE,65,0.0,0.0,57,0.00,CLR,,0.00,WeatherDisplay:10.37,2013-02-05 10:21:00,
2013-02-05 02:26:00,39.6,25.6,29.92,ENE,65,0.0,0.0,57,0.00,CLR,,0.00,WeatherDisplay:10.37,2013-02-05 10:26:00,
2013-02-05 02:31:00,38.9,24.5,29.93,ENE,65,0.0,0.0,56,0.00,CLR,,0.00,WeatherDisplay:10.37,2013-02-05 10:31:00,
2013-02-05 02:36:00,38.1,23.8,29.93,ENE,65,0.0,0.0,56,0.00,CLR,,0.00,WeatherDisplay:10.37,2013-02-05 10:36:00,
2013-02-05 02:41:00,37.3,23.4,29.93,ENE,65,0.0,0.0,57,0.00,CLR,,0.00,WeatherDisplay:10.37,2013-02-05 10:41:00,
2013-02-05 02:46:00,36.5,22.7,29.92,ENE,65,0.0,0.0,57,0.00,CLR,,0.00,WeatherDisplay:10.37,2013-02-05 10:46:00,
2013-02-05 02:51:00,35.6,22.7,29.93,ENE,65,0.0,0.0,59,0.00,CLR,,0.00,WeatherDisplay:10.37,2013-02-05 10:51:00,
2013-02-05 02:56:00,35.1,23.0,29.93,ENE,65,0.0,0.0,61,0.00,CLR,,0.00,WeatherDisplay:10.37,2013-02-05 10:56:00,
2013-02-05 03:01:00,35.1,23.8,29.92,ENE,65,0.0,0.0,63,0.00,CLR,,0.00,WeatherDisplay:10.37,2013-02-05 11:01:00,
2013-02-05 03:06:00,35.5,24.1,29.92,ENE,65,2.3,2.3,63,0.00,CLR,,0.00,WeatherDisplay:10.37,2013-02-05 11:06:00,
2013-02-05 03:11:00,35.7,24.3,29.92,ENE,65,0.0,0.0,63,0.00,CLR,,0.00,WeatherDisplay:10.37,2013-02-05 11:11:00,
2013-02-05 03:16:00,35.8,24.4,29.92,ENE,65,0.0,0.0,63,0.00,CLR,,0.00,WeatherDisplay:10.37,2013-02-05 11:16:00,
2013-02-05 03:21:00,35.9,24.5,29.92,ENE,65,0.0,0.0,63,0.00,CLR,,0.00,WeatherDisplay:10.37,2013-02-05 11:21:00,
2013-02-05 03:26:00,36.2,24.8,29.91,ENE,65,2.0,2.0,63,0.00,CLR,,0.00,WeatherDisplay:10.37,2013-02-05 11:26:00,
2013-02-05 03:31:00,36.4,24.6,29.92,ENE,65,1.1,0.0,62,0.00,CLR,,0.00,WeatherDisplay:10.37,2013-02-05 11:31:00,
2013-02-05 03:36:00,36.4,24.6,29.91,ENE,65,0.0,0.0,62,0.00,CLR,,0.00,WeatherDisplay:10.37,2013-02-05 11:36:00,
2013-02-05 03:41:00,36.6,24.8,29.91,ENE,65,2.0,2.0,62,0.00,CLR,,0.00,WeatherDisplay:10.37,2013-02-05 11:41:00,
2013-02-05 03:46:00,36.9,25.1,29.91,ENE,65,0.0,0.0,62,0.00,CLR,,0.00,WeatherDisplay:10.37,2013-02-05 11:46:00,
2013-02-05 03:51:00,36.7,24.5,29.91,ENE,65,0.0,0.0,61,0.00,CLR,,0.00,WeatherDisplay:10.37,2013-02-05 11:51:00,
2013-02-05 03:56:00,35.8,23.7,29.91,WNW,294,3.5,3.5,61,0.00,CLR,,0.00,WeatherDisplay:10.37,2013-02-05 11:56:00,
2013-02-05 04:01:00,35.2,23.5,29.92,West,275,4.6,4.6,62,0.00,CLR,,0.00,WeatherDisplay:10.37,2013-02-05 12:01:00,
2013-02-05 04:06:00,34.8,23.5,29.92,West,273,3.5,3.5,63,0.00,CLR,,0.00,WeatherDisplay:10.37,2013-02-05 12:06:00,
2013-02-05 04:11:00,34.4,23.1,29.92,West,272,1.1,0.0,63,0.00,CLR,,0.00,WeatherDisplay:10.37,2013-02-05 12:11:00,
2013-02-05 04:16:00,34.4,23.5,29.92,West,272,0.0,0.0,64,0.00,CLR,,0.00,WeatherDisplay:10.37,2013-02-05 12:16:00,
2013-02-05 04:21:00,34.3,23.4,29.92,West,273,0.0,0.0,64,0.00,CLR,,0.00,WeatherDisplay:10.37,2013-02-05 12:21:00,
2013-02-05 04:26:00,34.4,23.5,29.92,West,273,0.0,0.0,64,0.00,CLR,,0.00,WeatherDisplay:10.37,2013-02-05 12:26:00,
2013-02-05 04:31:00,34.4,23.5,29.92,West,272,0.0,0.0,64,0.00,CLR,,0.00,WeatherDisplay:10.37,2013-02-05 12:31:00,
2013-02-05 04:36:00,34.2,23.3,29.92,West,273,2.3,2.3,64,0.00,CLR,,0.00,WeatherDisplay:10.37,2013-02-05 12:36:00,
2013-02-05 04:41:00,33.9,23.0,29.92,West,272,2.3,2.3,64,0.00,CLR,,0.00,WeatherDisplay:10.37,2013-02-05 12:41:00,
2013-02-05 04:46:00,34.4,23.8,29.92,West,272,1.0,1.1,65,0.00,CLR,,0.00,WeatherDisplay:10.37,2013-02-05 12:46:00,
2013-02-05 04:51:00,35.0,24.4,29.92,West,273,2.3,2.3,65,0.00,CLR,,0.00,WeatherDisplay:10.37,2013-02-05 12:51:00,
2013-02-05 04:56:00,35.2,24.6,29.92,West,272,0.0,0.0,65,0.00,CLR,,0.00,WeatherDisplay:10.37,2013-02-05 12:56:00,
2013-02-05 05:01:00,35.3,24.3,29.92,West,272,0.0,0.0,64,0.00,CLR,,0.00,WeatherDisplay:10.37,2013-02-05 13:01:00,
2013-02-05 05:06:00,35.6,24.6,29.92,West,273,0.0,0.0,64,0.00,CLR,,0.00,WeatherDisplay:10.37,2013-02-05 13:06:00,
2013-02-05 05:11:00,35.7,24.7,29.92,West,272,0.0,0.0,64,0.00,CLR,,0.00,WeatherDisplay:10.37,2013-02-05 13:11:00,
2013-02-05 05:16:00,35.7,24.3,29.92,West,273,0.0,0.0,63,0.00,CLR,,0.00,WeatherDisplay:10.37,2013-02-05 13:16:00,
2013-02-05 05:21:00,35.7,24.7,29.92,West,273,0.0,0.0,64,0.00,CLR,,0.00,WeatherDisplay:10.37,2013-02-05 13:21:00,
2013-02-05 05:26:00,36.1,25.1,29.92,West,272,0.0,0.0,64,0.00,CLR,,0.00,WeatherDisplay:10.37,2013-02-05 13:26:00,
2013-02-05 05:31:00,36.2,24.8,29.92,West,273,0.0,0.0,63,0.00,CLR,,0.00,WeatherDisplay:10.37,2013-02-05 13:31:00,
2013-02-05 05:36:00,36.0,24.2,29.93,West,273,0.0,0.0,62,0.00,CLR,,0.00,WeatherDisplay:10.37,2013-02-05 13:36:00,
2013-02-05 05:41:00,35.6,23.9,29.93,West,273,0.0,0.0,62,0.00,CLR,,0.00,WeatherDisplay:10.37,2013-02-05 13:41:00,
2013-02-05 05:46:00,35.0,23.7,29.93,West,272,1.1,0.0,63,0.00,CLR,,0.00,WeatherDisplay:10.37,2013-02-05 13:46:00,
2013-02-05 05:51:00,34.7,23.8,29.92,West,273,0.0,0.2,64,0.00,CLR,,0.00,WeatherDisplay:10.37,2013-02-05 13:51:00,
2013-02-05 05:56:00,34.9,24.3,29.92,West,272,1.0,1.0,65,0.00,CLR,,0.00,WeatherDisplay:10.37,2013-02-05 13:56:00,
2013-02-05 06:01:00,35.2,24.2,29.93,West,273,2.3,2.3,64,0.00,CLR,,0.00,WeatherDisplay:10.37,2013-02-05 14:01:00,
2013-02-05 06:06:00,35.7,24.7,29.93,West,272,0.0,0.0,64,0.00,CLR,,0.00,WeatherDisplay:10.37,2013-02-05 14:06:00,
2013-02-05 06:11:00,36.1,24.7,29.94,SW,218,3.5,3.5,63,0.00,CLR,,0.00,WeatherDisplay:10.37,2013-02-05 14:11:00,
2013-02-05 06:16:00,36.0,24.6,29.94,SSW,208,3.5,3.5,63,0.00,CLR,,0.00,WeatherDisplay:10.37,2013-02-05 14:16:00,
2013-02-05 06:21:00,35.9,24.1,29.94,ENE,78,2.3,2.3,62,0.00,CLR,,0.00,WeatherDisplay:10.37,2013-02-05 14:21:00,
2013-02-05 06:26:00,36.0,24.2,29.93,ENE,74,1.1,1.1,62,0.00,CLR,,0.00,WeatherDisplay:10.37,2013-02-05 14:26:00,
2013-02-05 06:31:00,36.0,24.2,29.94,ENE,74,3.5,3.5,62,0.00,CLR,,0.00,WeatherDisplay:10.37,2013-02-05 14:31:00,
2013-02-05 06:36:00,36.2,24.4,29.93,NE,51,3.5,3.5,62,0.00,CLR,,0.00,WeatherDisplay:10.37,2013-02-05 14:36:00,
2013-02-05 06:41:00,36.3,24.1,29.94,NE,51,2.3,2.3,61,0.00,CLR,,0.00,WeatherDisplay:10.37,2013-02-05 14:41:00,
2013-02-05 06:46:00,36.0,23.8,29.94,NE,51,3.5,3.5,61,0.00,CLR,,0.00,WeatherDisplay:10.37,2013-02-05 14:46:00,
2013-02-05 06:51:00,36.0,23.8,29.94,NE,51,2.3,2.3,61,0.00,CLR,,0.00,WeatherDisplay:10.37,2013-02-05 14:51:00,
2013-02-05 06:56:00,36.0,23.8,29.95,NE,51,1.1,0.0,61,0.00,CLR,,0.00,WeatherDisplay:10.37,2013-02-05 14:56:00,
2013-02-05 07:01:00,36.2,24.0,29.95,NE,51,3.0,3.0,61,0.00,CLR,,0.00,WeatherDisplay:10.37,2013-02-05 15:01:00,
2013-02-05 07:06:00,35.7,23.6,29.96,NE,53,1.1,0.0,61,0.00,CLR,,0.00,WeatherDisplay:10.37,2013-02-05 15:06:00,
2013-02-05 07:11:00,35.6,23.1,29.96,NE,53,1.1,1.1,60,0.00,CLR,,0.00,WeatherDisplay:10.37,2013-02-05 15:11:00,
2013-02-05 07:16:00,34.7,22.6,29.96,NE,53,0.0,0.0,61,0.00,CLR,,0.00,WeatherDisplay:10.37,2013-02-05 15:16:00,
2013-02-05 07:21:00,34.4,22.7,29.97,NE,53,0.0,0.0,62,0.00,CLR,,0.00,WeatherDisplay:10.37,2013-02-05 15:21:00,
2013-02-05 07:26:00,34.6,23.3,29.96,NE,53,0.0,0.0,63,0.00,CLR,,0.00,WeatherDisplay:10.37,2013-02-05 15:26:00,
2013-02-05 07:31:00,35.2,23.9,29.96,NE,53,2.3,2.3,63,0.00,CLR,,0.00,WeatherDisplay:10.37,2013-02-05 15:31:00,
2013-02-05 07:36:00,35.4,24.0,29.96,NE,53,1.0,1.0,63,0.00,CLR,,0.00,WeatherDisplay:10.37,2013-02-05 15:36:00,
2013-02-05 07:41:00,35.6,24.2,29.96,NE,53,0.0,0.0,63,0.00,CLR,,0.00,WeatherDisplay:10.37,2013-02-05 15:41:00,
2013-02-05 07:46:00,36.6,25.2,29.95,NE,53,0.0,0.0,63,0.00,CLR,,0.00,WeatherDisplay:10.37,2013-02-05 15:46:00,
2013-02-05 07:51:00,37.6,25.7,29.95,NE,53,0.0,0.0,62,0.00,CLR,,0.00,WeatherDisplay:10.37,2013-02-05 15:51:00,
2013-02-05 07:56:00,37.9,25.2,29.96,NE,53,0.0,0.0,60,0.00,CLR,,0.00,WeatherDisplay:10.37,2013-02-05 15:56:00,
2013-02-05 08:02:00,39.0,25.9,29.96,NE,53,0.0,0.0,59,0.00,CLR,,0.00,WeatherDisplay:10.37,2013-02-05 16:02:00,
2013-02-05 08:07:00,39.5,25.9,29.97,NE,53,0.0,0.0,58,0.00,CLR,,0.00,WeatherDisplay:10.37,2013-02-05 16:07:00,
2013-02-05 08:12:00,39.9,25.9,29.96,NE,53,0.0,0.0,57,0.00,CLR,,0.00,WeatherDisplay:10.37,2013-02-05 16:12:00,
2013-02-05 08:17:00,40.4,25.9,29.96,NE,53,0.0,0.0,56,0.00,CLR,,0.00,WeatherDisplay:10.37,2013-02-05 16:17:00,
2013-02-05 08:22:00,42.1,26.6,29.95,NE,53,0.0,0.0,54,0.00,CLR,,0.00,WeatherDisplay:10.37,2013-02-05 16:22:00,
2013-02-05 08:27:00,43.5,26.6,29.96,NE,53,0.0,0.0,51,0.00,CLR,,0.00,WeatherDisplay:10.37,2013-02-05 16:27:00,
2013-02-05 08:32:00,44.3,26.3,29.95,NE,53,0.0,0.0,49,0.00,CLR,,0.00,WeatherDisplay:10.37,2013-02-05 16:32:00,
2013-02-05 08:37:00,44.9,26.9,29.95,NE,53,0.0,0.0,49,0.00,CLR,,0.00,WeatherDisplay:10.37,2013-02-05 16:37:00,
2013-02-05 08:42:00,45.5,26.9,29.95,NE,53,0.0,0.0,48,0.00,CLR,,0.00,WeatherDisplay:10.37,2013-02-05 16:42:00,
2013-02-05 08:47:00,46.3,27.2,29.95,NE,53,0.0,0.0,47,0.00,CLR,,0.00,WeatherDisplay:10.37,2013-02-05 16:47:00,
2013-02-05 08:52:00,47.1,27.4,29.95,NE,53,0.0,0.0,46,0.00,CLR,,0.00,WeatherDisplay:10.37,2013-02-05 16:52:00,
2013-02-05 08:57:00,47.8,27.5,29.94,NE,53,0.0,0.0,45,0.00,CLR,,0.00,WeatherDisplay:10.37,2013-02-05 16:57:00,
2013-02-05 09:02:00,48.3,27.9,29.97,NE,53,0.0,0.0,45,0.00,CLR,,0.00,WeatherDisplay:10.37,2013-02-05 17:02:00,
2013-02-05 09:07:00,48.9,28.5,29.97,NE,53,0.0,0.0,45,0.00,CLR,,0.00,WeatherDisplay:10.37,2013-02-05 17:07:00,
2013-02-05 09:12:00,49.8,28.7,29.96,NE,53,0.0,0.0,44,0.00,CLR,,0.00,WeatherDisplay:10.37,2013-02-05 17:12:00,
2013-02-05 09:18:00,50.5,28.8,29.96,NE,53,0.0,0.0,43,0.00,CLR,,0.00,WeatherDisplay:10.37,2013-02-05 17:18:00,
2013-02-05 09:23:00,51.1,29.4,29.96,NE,53,0.0,0.0,43,0.00,CLR,,0.00,WeatherDisplay:10.37,2013-02-05 17:23:00,
2013-02-05 09:28:00,52.0,29.0,29.95,NE,53,0.0,0.0,41,0.00,CLR,,0.00,WeatherDisplay:10.37,2013-02-05 17:28:00,
2013-02-05 09:33:00,52.3,29.3,29.95,NE,53,0.0,0.0,41,0.00,CLR,,0.00,WeatherDisplay:10.37,2013-02-05 17:33:00,
2013-02-05 09:38:00,52.4,28.8,29.95,NE,53,0.0,0.0,40,0.00,CLR,,0.00,WeatherDisplay:10.37,2013-02-05 17:38:00,
2013-02-05 09:43:00,52.7,29.0,29.95,NE,53,0.0,0.0,40,0.00,CLR,,0.00,WeatherDisplay:10.37,2013-02-05 17:43:00,
2013-02-05 09:48:00,54.0,29.6,29.95,NE,53,0.0,0.0,39,0.00,CLR,,0.00,WeatherDisplay:10.37,2013-02-05 17:48:00,
2013-02-05 09:53:00,54.5,29.4,29.95,NE,53,0.0,0.0,38,0.00,CLR,,0.00,WeatherDisplay:10.37,2013-02-05 17:53:00,
2013-02-05 09:58:00,54.7,29.6,29.95,NE,52,0.0,0.0,38,0.00,CLR,,0.00,WeatherDisplay:10.37,2013-02-05 17:58:00,
2013-02-05 10:03:00,55.1,29.3,29.95,NE,49,0.0,0.0,37,0.00,CLR,,0.00,WeatherDisplay:10.37,2013-02-05 18:03:00,
2013-02-05 10:08:00,56.3,30.3,29.95,NE,49,0.0,0.0,37,0.00,CLR,,0.00,WeatherDisplay:10.37,2013-02-05 18:08:00,
2013-02-05 10:13:00,57.8,30.3,29.94,NE,51,0.0,0.0,35,0.00,CLR,,0.00,WeatherDisplay:10.37,2013-02-05 18:13:00,
2013-02-05 10:18:00,58.1,30.6,29.94,NE,51,0.0,0.0,35,0.00,CLR,,0.00,WeatherDisplay:10.37,2013-02-05 18:18:00,
2013-02-05 10:23:00,59.0,30.6,29.93,NE,52,0.0,0.0,34,0.00,CLR,,0.00,WeatherDisplay:10.37,2013-02-05 18:23:00,
2013-02-05 10:28:00,59.7,30.5,29.93,East,92,0.0,0.0,33,0.00,CLR,,0.00,WeatherDisplay:10.37,2013-02-05 18:28:00,
2013-02-05 10:33:00,60.5,30.5,29.93,East,96,0.0,0.0,32,0.00,CLR,,0.00,WeatherDisplay:10.37,2013-02-05 18:33:00,
2013-02-05 10:39:00,61.1,31.0,29.92,East,96,0.0,0.0,32,0.00,CLR,,0.00,WeatherDisplay:10.37,2013-02-05 18:39:00,
2013-02-05 10:44:00,61.8,30.8,29.92,East,96,0.0,0.0,31,0.00,CLR,,0.00,WeatherDisplay:10.37,2013-02-05 18:44:00,
2013-02-05 10:49:00,62.1,31.1,29.91,East,96,0.0,0.0,31,0.00,CLR,,0.00,WeatherDisplay:10.37,2013-02-05 18:49:00,
2013-02-05 10:54:00,63.0,31.0,29.91,East,96,2.3,2.3,30,0.00,CLR,,0.00,WeatherDisplay:10.37,2013-02-05 18:54:00,
2013-02-05 10:59:00,63.3,31.3,29.90,East,96,0.0,0.0,30,0.00,CLR,,0.00,WeatherDisplay:10.37,2013-02-05 18:59:00,
2013-02-05 11:04:00,63.1,31.9,29.90,East,96,3.5,3.5,31,0.00,CLR,,0.00,WeatherDisplay:10.37,2013-02-05 19:04:00,
2013-02-05 11:09:00,63.5,31.5,29.90,East,96,4.6,4.6,30,0.00,CLR,,0.00,WeatherDisplay:10.37,2013-02-05 19:09:00,
2013-02-05 11:15:00,64.2,32.1,29.90,East,96,4.0,4.0,30,0.00,CLR,,0.00,WeatherDisplay:10.37,2013-02-05 19:15:00,
2013-02-05 11:20:00,64.8,31.8,29.90,East,101,3.5,3.5,29,0.00,CLR,,0.00,WeatherDisplay:10.37,2013-02-05 19:20:00,
2013-02-05 11:25:00,65.1,32.0,29.89,East,101,1.1,1.1,29,0.00,CLR,,0.00,WeatherDisplay:10.37,2013-02-05 19:25:00,
2013-02-05 11:30:00,65.9,31.8,29.89,East,101,0.0,0.0,28,0.00,CLR,,0.00,WeatherDisplay:10.37,2013-02-05 19:30:00,
2013-02-05 11:35:00,66.5,31.5,29.89,ESE,102,3.5,3.5,27,0.00,CLR,,0.00,WeatherDisplay:10.37,2013-02-05 19:35:00,
2013-02-05 11:40:00,67.1,32.0,29.88,ESE,103,3.5,3.5,27,0.00,CLR,,0.00,WeatherDisplay:10.37,2013-02-05 19:40:00,
2013-02-05 11:45:00,67.9,31.7,29.87,East,101,0.0,0.0,26,0.00,CLR,,0.00,WeatherDisplay:10.37,2013-02-05 19:45:00,
2013-02-05 11:50:00,68.0,31.8,29.87,ESE,102,5.8,5.8,26,0.00,CLR,,0.00,WeatherDisplay:10.37,2013-02-05 19:50:00,
2013-02-05 11:55:00,68.3,32.1,29.86,ESE,102,3.5,3.5,26,0.00,CLR,,0.00,WeatherDisplay:10.37,2013-02-05 19:55:00,
2013-02-05 12:00:00,68.7,31.4,29.85,ESE,102,0.0,0.0,25,0.00,CLR,,0.00,WeatherDisplay:10.37,2013-02-05 20:00:00,
2013-02-05 12:05:00,69.6,32.2,29.86,ESE,102,4.0,4.0,25,0.00,CLR,,0.00,WeatherDisplay:10.37,2013-02-05 20:05:00,
2013-02-05 12:10:00,69.5,31.1,29.85,ESE,102,3.5,3.5,24,0.00,CLR,,0.00,WeatherDisplay:10.37,2013-02-05 20:10:00,
2013-02-05 12:15:00,70.0,31.5,29.85,ESE,102,3.5,3.5,24,0.00,CLR,,0.00,WeatherDisplay:10.37,2013-02-05 20:15:00,
2013-02-05 12:20:00,70.1,31.6,29.84,ESE,102,3.5,3.5,24,0.00,CLR,,0.00,WeatherDisplay:10.37,2013-02-05 20:20:00,
2013-02-05 12:25:00,70.3,31.8,29.84,SE,132,5.0,5.0,24,0.00,CLR,,0.00,WeatherDisplay:10.37,2013-02-05 20:25:00,
2013-02-05 12:30:00,70.5,30.9,29.84,SW,221,5.8,5.8,23,0.00,CLR,,0.00,WeatherDisplay:10.37,2013-02-05 20:30:00,
2013-02-05 12:35:00,70.8,32.2,29.83,SE,146,0.0,0.0,24,0.00,CLR,,0.00,WeatherDisplay:10.37,2013-02-05 20:35:00,
2013-02-05 12:40:00,71.1,31.4,29.83,SE,146,0.0,0.0,23,0.00,CLR,,0.00,WeatherDisplay:10.37,2013-02-05 20:40:00,
2013-02-05 12:45:00,71.0,32.4,29.83,SE,130,5.8,5.8,24,0.00,CLR,,0.00,WeatherDisplay:10.37,2013-02-05 20:45:00,
2013-02-05 12:50:00,71.4,32.7,29.82,SE,146,10.4,10.4,24,0.00,CLR,,0.00,WeatherDisplay:10.37,2013-02-05 20:50:00,
2013-02-05 12:55:00,71.7,33.0,29.81,SSW,200,4.6,4.9,24,0.00,CLR,,0.00,WeatherDisplay:10.37,2013-02-05 20:55:00,
2013-02-05 13:00:00,71.8,33.0,29.81,SSE,151,9.2,9.2,24,0.00,CLR,,0.00,WeatherDisplay:10.37,2013-02-05 21:00:00,
2013-02-05 13:05:00,71.7,33.0,29.81,SW,223,17.3,17.3,24,0.00,CLR,,0.00,WeatherDisplay:10.37,2013-02-05 21:05:00,
2013-02-05 13:10:00,71.7,33.0,29.80,SSW,212,15.0,15.0,24,0.00,CLR,,0.00,WeatherDisplay:10.37,2013-02-05 21:10:00,
2013-02-05 13:15:00,71.8,32.0,29.81,WSW,247,15.0,15.0,23,0.00,CLR,,0.00,WeatherDisplay:10.37,2013-02-05 21:15:00,
2013-02-05 13:20:00,71.8,33.0,29.80,SSW,200,21.9,21.9,24,0.00,CLR,,0.00,WeatherDisplay:10.37,2013-02-05 21:20:00,
2013-02-05 13:25:00,71.7,33.0,29.80,SSW,211,17.3,17.3,24,0.00,CLR,,0.00,WeatherDisplay:10.37,2013-02-05 21:25:00,
2013-02-05 13:30:00,71.4,32.7,29.80,SSW,194,19.6,19.6,24,0.00,CLR,,0.00,WeatherDisplay:10.37,2013-02-05 21:30:00,
2013-02-05 13:35:00,71.3,33.6,29.80,SSW,208,23.0,23.0,25,0.00,CLR,,0.00,WeatherDisplay:10.37,2013-02-05 21:35:00,
2013-02-05 13:40:00,71.1,33.5,29.79,South,183,16.1,16.1,25,0.00,CLR,,0.00,WeatherDisplay:10.37,2013-02-05 21:40:00,
2013-02-05 13:45:00,71.2,34.5,29.79,South,184,21.9,21.9,26,0.00,CLR,,0.00,WeatherDisplay:10.37,2013-02-05 21:45:00,
2013-02-05 13:50:00,70.2,33.7,29.80,SW,214,20.7,20.7,26,0.00,CLR,,0.00,WeatherDisplay:10.37,2013-02-05 21:50:00,
2013-02-05 13:55:00,68.7,34.3,29.80,SW,221,21.9,21.9,28,0.00,CLR,,0.00,WeatherDisplay:10.37,2013-02-05 21:55:00,
2013-02-05 14:00:00,67.8,34.4,29.81,SW,214,26.5,26.5,29,0.00,CLR,,0.00,WeatherDisplay:10.37,2013-02-05 22:00:00,
2013-02-05 14:05:00,67.0,34.5,29.81,South,180,25.3,25.3,30,0.00,CLR,,0.00,WeatherDisplay:10.37,2013-02-05 22:05:00,
2013-02-05 14:10:00,67.0,35.3,29.81,SSW,202,24.2,24.2,31,0.00,CLR,,0.00,WeatherDisplay:10.37,2013-02-05 22:10:00,
2013-02-05 14:15:00,67.3,35.6,29.80,SSW,202,18.4,18.4,31,0.00,CLR,,0.00,WeatherDisplay:10.37,2013-02-05 22:15:00,
2013-02-05 14:20:00,68.1,35.5,29.80,SW,219,25.3,25.3,30,0.00,CLR,,0.00,WeatherDisplay:10.37,2013-02-05 22:20:00,
2013-02-05 14:25:00,68.5,35.8,29.79,SSW,210,23.0,23.0,30,0.00,CLR,,0.00,WeatherDisplay:10.37,2013-02-05 22:25:00,
2013-02-05 14:30:00,69.9,36.2,29.79,SSW,209,19.6,19.6,29,0.00,CLR,,0.00,WeatherDisplay:10.37,2013-02-05 22:30:00,
2013-02-05 14:35:00,70.4,34.8,29.78,SW,226,24.2,24.2,27,0.00,CLR,,0.00,WeatherDisplay:10.37,2013-02-05 22:35:00,
2013-02-05 14:40:00,70.3,35.6,29.78,SW,225,23.0,23.0,28,0.00,CLR,,0.00,WeatherDisplay:10.37,2013-02-05 22:40:00,
2013-02-05 14:46:00,70.4,33.9,29.78,SSW,211,27.6,27.6,26,0.00,CLR,,0.00,WeatherDisplay:10.37,2013-02-05 22:46:00,
2013-02-05 14:51:00,72.2,27.6,29.78,West,269,19.6,19.6,19,0.00,CLR,,0.00,WeatherDisplay:10.37,2013-02-05 22:51:00,
2013-02-05 14:56:00,72.5,26.5,29.78,WSW,252,19.6,19.6,18,0.00,CLR,,0.00,WeatherDisplay:10.37,2013-02-05 22:56:00,
2013-02-05 15:01:00,72.8,26.8,29.78,WNW,284,19.6,19.6,18,0.00,CLR,,0.00,WeatherDisplay:10.37,2013-02-05 23:01:00,
2013-02-05 15:06:00,72.6,29.2,29.78,WNW,300,13.8,13.8,20,0.00,CLR,,0.00,WeatherDisplay:10.37,2013-02-05 23:06:00,
2013-02-05 15:11:00,72.2,27.6,29.78,West,277,16.1,16.1,19,0.00,CLR,,0.00,WeatherDisplay:10.37,2013-02-05 23:11:00,
2013-02-05 15:16:00,72.2,27.6,29.79,WNW,284,15.0,15.0,19,0.00,CLR,,0.00,WeatherDisplay:10.37,2013-02-05 23:16:00,
2013-02-05 15:21:00,72.1,27.5,29.79,West,269,18.4,18.4,19,0.00,CLR,,0.00,WeatherDisplay:10.37,2013-02-05 23:21:00,
2013-02-05 15:26:00,71.9,27.4,29.79,West,260,16.1,16.1,19,0.00,CLR,,0.00,WeatherDisplay:10.37,2013-02-05 23:26:00,
2013-02-05 15:31:00,71.4,27.0,29.79,WNW,286,19.6,19.6,19,0.00,CLR,,0.00,WeatherDisplay:10.37,2013-02-05 23:31:00,
2013-02-05 15:36:00,70.8,27.7,29.79,West,267,20.7,20.7,20,0.00,CLR,,0.00,WeatherDisplay:10.37,2013-02-05 23:36:00,
2013-02-05 15:41:00,70.3,27.3,29.79,West,264,14.0,14.0,20,0.00,CLR,,0.00,WeatherDisplay:10.37,2013-02-05 23:41:00,
2013-02-05 15:46:00,70.2,27.2,29.80,WNW,284,17.3,17.3,20,0.00,CLR,,0.00,WeatherDisplay:10.37,2013-02-05 23:46:00,
2013-02-05 15:51:00,69.9,27.0,29.80,West,267,14.0,14.0,20,0.00,CLR,,0.00,WeatherDisplay:10.37,2013-02-05 23:51:00,
2013-02-05 15:56:00,69.7,26.8,29.80,West,279,17.3,17.3,20,0.00,CLR,,0.00,WeatherDisplay:10.37,2013-02-05 23:56:00,
2013-02-05 16:01:00,69.7,26.8,29.80,West,281,16.1,16.1,20,0.00,CLR,,0.00,WeatherDisplay:10.37,2013-02-06 00:01:00,
2013-02-05 16:06:00,69.9,27.0,29.80,West,263,17.3,17.3,20,0.00,CLR,,0.00,WeatherDisplay:10.37,2013-02-06 00:06:00,
2013-02-05 16:11:00,69.7,28.0,29.80,West,272,19.6,19.6,21,0.00,CLR,,0.00,WeatherDisplay:10.37,2013-02-06 00:11:00,
2013-02-05 16:16:00,69.8,28.1,29.80,WSW,256,15.0,15.0,21,0.00,CLR,,0.00,WeatherDisplay:10.37,2013-02-06 00:16:00,
2013-02-05 16:21:00,70.4,28.6,29.80,SW,219,13.8,13.8,21,0.00,CLR,,0.00,WeatherDisplay:10.37,2013-02-06 00:21:00,
2013-02-05 16:26:00,68.8,37.7,29.80,SW,227,16.1,16.1,32,0.00,CLR,,0.00,WeatherDisplay:10.37,2013-02-06 00:26:00,
2013-02-05 16:31:00,67.1,31.0,29.80,WSW,240,12.7,12.7,26,0.00,CLR,,0.00,WeatherDisplay:10.37,2013-02-06 00:31:00,
2013-02-05 16:40:00,67.4,29.3,29.81,West,261,11.0,11.0,24,0.00,CLR,,0.00,WeatherDisplay:10.37,2013-02-06 00:40:00,
2013-02-05 16:45:00,67.0,30.0,29.81,West,275,13.8,13.8,25,0.00,CLR,,0.00,WeatherDisplay:10.37,2013-02-06 00:45:00,
2013-02-05 16:50:00,66.5,30.5,29.81,WSW,252,9.2,9.2,26,0.00,CLR,,0.00,WeatherDisplay:10.37,2013-02-06 00:50:00,
2013-02-05 16:55:00,65.9,30.9,29.82,WSW,258,11.5,11.5,27,0.00,CLR,,0.00,WeatherDisplay:10.37,2013-02-06 00:55:00,
2013-02-05 17:00:00,65.3,30.4,29.83,West,260,10.0,10.0,27,0.00,CLR,,0.00,WeatherDisplay:10.37,2013-02-06 01:00:00,
2013-02-05 17:05:00,64.7,30.8,29.83,WSW,242,5.8,5.8,28,0.00,CLR,,0.00,WeatherDisplay:10.37,2013-02-06 01:05:00,
2013-02-05 17:10:00,63.1,32.7,29.83,West,280,20.7,20.7,32,0.00,CLR,,0.00,WeatherDisplay:10.37,2013-02-06 01:10:00,
2013-02-05 17:15:00,62.1,32.6,29.84,West,262,10.4,10.4,33,0.00,CLR,,0.00,WeatherDisplay:10.37,2013-02-06 01:15:00,
2013-02-05 17:20:00,62.1,32.6,29.84,WSW,254,6.9,6.9,33,0.00,CLR,,0.00,WeatherDisplay:10.37,2013-02-06 01:20:00,
2013-02-05 17:25:00,61.4,32.8,29.84,West,261,10.4,10.4,34,0.00,CLR,,0.00,WeatherDisplay:10.37,2013-02-06 01:25:00,
2013-02-05 17:30:00,60.8,32.2,29.84,WSW,254,13.8,13.8,34,0.00,CLR,,0.00,WeatherDisplay:10.37,2013-02-06 01:30:00,
2013-02-05 17:35:00,60.2,33.8,29.85,SW,234,13.8,13.8,37,0.00,CLR,,0.00,WeatherDisplay:10.37,2013-02-06 01:35:00,
2013-02-05 17:41:00,59.6,34.6,29.85,West,263,12.7,12.7,39,0.00,CLR,,0.00,WeatherDisplay:10.37,2013-02-06 01:41:00,
2013-02-05 17:46:00,59.3,35.0,29.85,WSW,257,18.4,18.4,40,0.00,CLR,,0.00,WeatherDisplay:10.37,2013-02-06 01:46:00,
2013-02-05 17:51:00,58.7,36.8,29.85,WSW,255,13.0,13.0,44,0.00,CLR,,0.00,WeatherDisplay:10.37,2013-02-06 01:51:00,
2013-02-05 17:56:00,57.9,36.7,29.86,WSW,254,11.5,11.5,45,0.00,CLR,,0.00,WeatherDisplay:10.37,2013-02-06 01:56:00,
2013-02-05 18:01:00,57.4,37.3,29.85,West,262,10.0,10.0,47,0.00,CLR,,0.00,WeatherDisplay:10.37,2013-02-06 02:01:00,
2013-02-05 18:06:00,57.0,38.0,29.86,WSW,255,9.2,9.2,49,0.00,CLR,,0.00,WeatherDisplay:10.37,2013-02-06 02:06:00,
2013-02-05 18:11:00,56.4,39.0,29.85,West,267,11.5,11.5,52,0.00,CLR,,0.00,WeatherDisplay:10.37,2013-02-06 02:11:00,
2013-02-05 18:16:00,56.0,39.1,29.85,WSW,248,11.5,11.5,53,0.00,CLR,,0.00,WeatherDisplay:10.37,2013-02-06 02:16:00,
2013-02-05 18:21:00,55.8,39.4,29.85,West,264,11.5,11.5,54,0.00,CLR,,0.00,WeatherDisplay:10.37,2013-02-06 02:21:00,
2013-02-05 18:26:00,55.6,39.2,29.85,West,263,11.5,11.5,54,0.00,CLR,,0.00,WeatherDisplay:10.37,2013-02-06 02:26:00,
2013-02-05 18:31:00,55.6,39.2,29.85,West,264,13.8,13.8,54,0.00,CLR,,0.00,WeatherDisplay:10.37,2013-02-06 02:31:00,
2013-02-05 18:36:00,55.5,39.1,29.86,WSW,252,11.5,11.5,54,0.00,CLR,,0.00,WeatherDisplay:10.37,2013-02-06 02:36:00,
2013-02-05 18:41:00,55.3,38.9,29.86,West,260,10.4,10.4,54,0.00,CLR,,0.00,WeatherDisplay:10.37,2013-02-06 02:41:00,
2013-02-05 18:46:00,55.3,38.9,29.87,WSW,252,12.0,12.0,54,0.00,CLR,,0.00,WeatherDisplay:10.37,2013-02-06 02:46:00,
2013-02-05 18:51:00,55.3,38.4,29.87,West,280,12.0,12.0,53,0.00,CLR,,0.00,WeatherDisplay:10.37,2013-02-06 02:51:00,
2013-02-05 18:57:00,55.5,38.6,29.87,West,261,11.5,11.5,53,0.00,CLR,,0.00,WeatherDisplay:10.37,2013-02-06 02:57:00,
2013-02-05 19:02:00,55.5,38.6,29.86,WSW,244,12.7,12.7,53,0.00,CLR,,0.00,WeatherDisplay:10.37,2013-02-06 03:02:00,
2013-02-05 19:07:00,55.5,38.6,29.86,WSW,244,9.2,9.2,53,0.00,CLR,,0.00,WeatherDisplay:10.37,2013-02-06 03:07:00,
2013-02-05 19:12:00,55.5,39.6,29.86,West,275,10.4,10.4,55,0.00,CLR,,0.00,WeatherDisplay:10.37,2013-02-06 03:12:00,
2013-02-05 19:17:00,55.4,39.5,29.86,WSW,248,4.6,4.6,55,0.00,CLR,,0.00,WeatherDisplay:10.37,2013-02-06 03:17:00,
2013-02-05 19:22:00,55.4,39.5,29.86,West,260,1.1,0.0,55,0.00,CLR,,0.00,WeatherDisplay:10.37,2013-02-06 03:22:00,
2013-02-05 19:27:00,55.4,39.5,29.86,WSW,252,0.0,0.0,55,0.00,CLR,,0.00,WeatherDisplay:10.37,2013-02-06 03:27:00,
2013-02-05 19:33:00,55.3,39.4,29.86,WSW,246,2.3,2.3,55,0.00,CLR,,0.00,WeatherDisplay:10.37,2013-02-06 03:33:00,
2013-02-05 19:38:00,55.3,39.9,29.86,WSW,241,3.5,3.5,56,0.00,CLR,,0.00,WeatherDisplay:10.37,2013-02-06 03:38:00,
2013-02-05 19:43:00,55.3,39.9,29.86,SW,229,4.6,4.6,56,0.00,CLR,,0.00,WeatherDisplay:10.37,2013-02-06 03:43:00,
2013-02-05 19:48:00,55.3,39.9,29.86,WSW,246,5.8,5.8,56,0.00,CLR,,0.00,WeatherDisplay:10.37,2013-02-06 03:48:00,
2013-02-05 19:53:00,55.4,40.0,29.86,West,277,4.6,4.6,56,0.00,CLR,,0.00,WeatherDisplay:10.37,2013-02-06 03:53:00,
2013-02-05 19:58:00,55.6,40.1,29.86,West,267,4.6,4.6,56,0.00,CLR,,0.00,WeatherDisplay:10.37,2013-02-06 03:58:00,
2013-02-05 20:03:00,55.5,39.6,29.84,West,267,2.3,2.3,55,0.00,CLR,,0.00,WeatherDisplay:10.37,2013-02-06 04:03:00,
2013-02-05 20:08:00,55.4,40.9,29.85,WSW,240,15.0,15.0,58,0.00,CLR,,0.00,WeatherDisplay:10.37,2013-02-06 04:08:00,
2013-02-05 20:13:00,55.3,40.8,29.84,WSW,250,12.7,12.7,58,0.00,CLR,,0.00,WeatherDisplay:10.37,2013-02-06 04:13:00,
2013-02-05 20:18:00,54.8,41.6,29.84,West,261,13.8,13.8,61,0.00,CLR,,0.00,WeatherDisplay:10.37,2013-02-06 04:18:00,
2013-02-05 20:23:00,54.6,41.4,29.85,WSW,250,19.6,19.6,61,0.00,CLR,,0.00,WeatherDisplay:10.37,2013-02-06 04:23:00,
2013-02-05 20:28:00,54.5,41.7,29.85,WSW,257,15.0,15.0,62,0.00,CLR,,0.00,WeatherDisplay:10.37,2013-02-06 04:28:00,
2013-02-05 20:33:00,54.5,41.3,29.85,WSW,257,14.0,14.0,61,0.00,CLR,,0.00,WeatherDisplay:10.37,2013-02-06 04:33:00,
2013-02-05 20:38:00,54.5,41.7,29.85,WSW,244,15.0,15.0,62,0.00,CLR,,0.00,WeatherDisplay:10.37,2013-02-06 04:38:00,
2013-02-05 20:43:00,54.6,41.4,29.85,WSW,246,10.4,10.4,61,0.00,CLR,,0.00,WeatherDisplay:10.37,2013-02-06 04:43:00,
2013-02-05 20:48:00,54.4,41.2,29.85,SW,233,5.8,5.8,61,0.00,CLR,,0.00,WeatherDisplay:10.37,2013-02-06 04:48:00,
2013-02-05 20:53:00,54.3,41.6,29.85,SW,232,3.5,3.5,62,0.00,CLR,,0.00,WeatherDisplay:10.37,2013-02-06 04:53:00,
2013-02-05 20:58:00,54.3,41.6,29.85,West,269,4.6,4.6,62,0.00,CLR,,0.00,WeatherDisplay:10.37,2013-02-06 04:58:00,
2013-02-05 21:00:00,54.4,41.6,29.85,West,269,4.6,4.6,62,0.00,CLR,,0.00,WeatherDisplay:10.37,2013-02-06 05:00:00,
2013-02-05 21:01:00,54.4,41.6,29.83,West,269,2.3,2.3,62,0.00,CLR,,0.00,WeatherDisplay:10.37,2013-02-06 05:01:00,
2013-02-05 21:03:00,54.4,41.6,29.83,West,269,3.5,3.5,62,0.00,CLR,,0.00,WeatherDisplay:10.37,2013-02-06 05:03:00,
2013-02-05 21:08:00,54.4,41.2,29.83,West,269,0.0,0.0,61,0.00,CLR,,0.00,WeatherDisplay:10.37,2013-02-06 05:08:00,
2013-02-05 21:13:00,54.4,41.6,29.83,West,269,0.0,0.0,62,0.00,CLR,,0.00,WeatherDisplay:10.37,2013-02-06 05:13:00,
2013-02-05 21:18:00,54.2,41.0,29.84,SSW,211,4.6,4.6,61,0.00,CLR,,0.00,WeatherDisplay:10.37,2013-02-06 05:18:00,
2013-02-05 21:23:00,54.3,39.8,29.85,West,259,12.7,12.7,58,0.00,CLR,,0.00,WeatherDisplay:10.37,2013-02-06 05:23:00,
2013-02-05 21:28:00,54.8,40.3,29.84,West,264,11.5,11.5,58,0.00,CLR,,0.00,WeatherDisplay:10.37,2013-02-06 05:28:00,
2013-02-05 21:33:00,54.5,41.3,29.84,WSW,256,13.8,13.8,61,0.00,CLR,,0.00,WeatherDisplay:10.37,2013-02-06 05:33:00,
2013-02-05 21:38:00,53.9,41.6,29.84,SW,232,19.6,19.6,63,0.00,CLR,,0.00,WeatherDisplay:10.37,2013-02-06 05:38:00,
2013-02-05 21:43:00,53.7,41.8,29.84,West,260,18.4,18.4,64,0.00,CLR,,0.00,WeatherDisplay:10.37,2013-02-06 05:43:00,
2013-02-05 21:48:00,53.4,41.9,29.85,West,271,17.3,17.3,65,0.00,CLR,,0.00,WeatherDisplay:10.37,2013-02-06 05:48:00,
2013-02-05 21:53:00,52.8,42.1,29.85,West,259,16.1,16.1,67,0.00,CLR,,0.00,WeatherDisplay:10.37,2013-02-06 05:53:00,
2013-02-05 21:58:00,52.2,42.3,29.85,WSW,242,17.3,17.3,69,0.00,CLR,,0.00,WeatherDisplay:10.37,2013-02-06 05:58:00,
2013-02-05 22:03:00,52.0,42.1,29.84,West,265,15.0,15.0,69,0.00,CLR,,0.00,WeatherDisplay:10.37,2013-02-06 06:03:00,
2013-02-05 22:08:00,52.1,42.2,29.84,West,267,24.2,24.2,69,0.00,CLR,,0.00,WeatherDisplay:10.37,2013-02-06 06:08:00,
2013-02-05 22:13:00,51.2,42.5,29.84,West,261,12.0,12.0,72,0.00,CLR,,0.00,WeatherDisplay:10.37,2013-02-06 06:13:00,
2013-02-05 22:18:00,50.6,42.6,29.84,West,262,12.7,12.7,74,0.00,CLR,,0.00,WeatherDisplay:10.37,2013-02-06 06:18:00,
2013-02-05 22:23:00,50.3,42.7,29.85,WSW,249,11.5,11.5,75,0.00,CLR,,0.00,WeatherDisplay:10.37,2013-02-06 06:23:00,
2013-02-05 22:28:00,50.5,42.9,29.85,SW,234,13.8,13.8,75,0.00,CLR,,0.00,WeatherDisplay:10.37,2013-02-06 06:28:00,
2013-02-05 22:33:00,50.3,42.7,29.84,West,260,27.6,27.6,75,0.00,CLR,,0.00,WeatherDisplay:10.37,2013-02-06 06:33:00,
2013-02-05 22:38:00,49.3,42.4,29.84,West,259,23.0,23.0,77,0.00,CLR,,0.00,WeatherDisplay:10.37,2013-02-06 06:38:00,
2013-02-05 22:43:00,48.7,42.1,29.84,West,264,18.4,18.4,78,0.00,CLR,,0.00,WeatherDisplay:10.37,2013-02-06 06:43:00,
2013-02-05 22:48:00,48.6,42.4,29.85,West,277,19.6,19.6,79,0.00,CLR,,0.00,WeatherDisplay:10.37,2013-02-06 06:48:00,
2013-02-05 22:53:00,48.0,41.8,29.85,West,269,23.0,23.0,79,0.00,CLR,,0.00,WeatherDisplay:10.37,2013-02-06 06:53:00,
2013-02-05 22:58:00,47.7,41.8,29.85,West,277,20.7,20.7,80,0.00,CLR,,0.00,WeatherDisplay:10.37,2013-02-06 06:58:00,
2013-02-05 23:03:00,47.4,41.9,29.83,West,265,25.3,25.3,81,0.00,CLR,,0.00,WeatherDisplay:10.37,2013-02-06 07:03:00,
2013-02-05 23:08:00,47.4,41.9,29.84,West,269,24.2,24.2,81,0.00,CLR,,0.00,WeatherDisplay:10.37,2013-02-06 07:08:00,
2013-02-05 23:13:00,47.1,41.9,29.84,WNW,302,20.7,20.7,82,0.00,CLR,,0.00,WeatherDisplay:10.37,2013-02-06 07:13:00,
2013-02-05 23:18:00,46.7,41.8,29.84,WSW,257,19.6,19.6,83,0.00,CLR,,0.00,WeatherDisplay:10.37,2013-02-06 07:18:00,
2013-02-05 23:23:00,46.7,41.8,29.83,West,268,21.9,21.9,83,0.00,CLR,,0.00,WeatherDisplay:10.37,2013-02-06 07:23:00,
2013-02-05 23:28:00,46.7,41.8,29.84,West,268,19.6,19.6,83,0.00,CLR,,0.00,WeatherDisplay:10.37,2013-02-06 07:28:00,
2013-02-05 23:33:00,46.4,41.5,29.83,SW,231,17.0,17.0,83,0.00,CLR,,0.00,WeatherDisplay:10.37,2013-02-06 07:33:00,
2013-02-05 23:38:00,46.5,41.9,29.83,West,267,15.0,15.0,84,0.00,CLR,,0.00,WeatherDisplay:10.37,2013-02-06 07:38:00,
2013-02-05 23:43:00,46.7,41.8,29.83,West,259,15.0,15.0,83,0.00,CLR,,0.00,WeatherDisplay:10.37,2013-02-06 07:43:00,
2013-02-05 23:48:00,46.6,41.7,29.84,WSW,250,19.6,19.6,83,0.00,CLR,,0.00,WeatherDisplay:10.37,2013-02-06 07:48:00,
2013-02-05 23:53:00,46.4,41.5,29.84,WSW,257,17.0,17.0,83,0.00,CLR,,0.00,WeatherDisplay:10.37,2013-02-06 07:53:00,
2013-02-05 23:58:00,46.2,41.6,29.84,West,261,18.4,18.4,84,0.00,CLR,,0.00,WeatherDisplay:10.37,2013-02-06 07:58:00,